Location: *
(40.4270°N, 9.4940°E)
Time: 07:32:40
(UTC+02:00)

Okean 2 - Visible Passes

Search period start: 26 September 2017 00:00
Search period end: 06 October 2017 00:00
Orbit: 561 x 578 km, 82.5° (Epoch: 25 September)

Date Brightness Start Highest point End Pass type
(mag) Time Alt. Az. Time Alt. Az. Time Alt. Az.
26 Sep 5.7 05:36:28 10° SE 05:39:51 25° E 05:43:15 10° NNE visible
27 Sep 5.2 05:38:04 10° SSE 05:41:43 33° E 05:45:25 10° NNE visible
28 Sep 4.6 05:39:45 10° SSE 05:43:37 43° E 05:47:31 10° NNE visible
29 Sep 4.0 05:41:31 10° S 05:45:31 57° E 05:49:34 10° NNE visible
30 Sep 3.5 05:43:21 10° S 05:47:25 76° E 05:51:33 10° N visible
01 Oct 3.2 05:45:20 10° S 05:49:21 82° W 05:53:30 10° N visible
02 Oct 3.3 05:48:48 22° SSW 05:51:18 62° W 05:55:24 10° N visible
03 Oct 6.4 04:15:48 11° E 04:16:55 12° E 04:18:32 10° ENE visible
03 Oct 3.6 05:51:59 35° SW 05:53:15 47° W 05:57:15 10° N visible
04 Oct 6.2 04:18:48 16° E 04:18:48 16° E 04:21:13 10° NE visible
04 Oct 3.9 05:54:59 36° W 05:55:14 36° WNW 05:59:04 10° N visible
05 Oct 6.0 04:21:39 18° ENE 04:21:39 18° ENE 04:23:37 10° NE visible
05 Oct 4.4 05:57:50 27° WNW 05:57:50 27° WNW 06:00:49 10° NNW visible
